Phoenix-Mesa Gateway Airport, AZ

2:37 AM MST on October 24, 2017 (GMT -0700)
Phoenix-Mesa Gateway Airport

Weather History for KIWA - November, 2012

Change the Weather History Date:

Saturday, November 10, 2012

  Actual Average Record
Temperature  
Mean Temperature 52 °F -  
Max Temperature 60 °F 73 °F 86 °F (2001)
Min Temperature 44 °F 49 °F 37 °F (1998)
Degree Days  
Heating Degree Days 13    
Growing Degree Days 2 (Base 50)    
Moisture  
Dew Point 38 °F    
Average Humidity 60    
Maximum Humidity 88    
Minimum Humidity 25    
Precipitation  
Precipitation 0.12 in - - ()
Sea Level Pressure  
Sea Level Pressure 29.96 in    
Wind  
Wind Speed 8 mph (SW)    
Max Wind Speed 20 mph    
Max Gust Speed 30 mph    
Visibility 10 miles    
Events Rain    
Averages and records for this station are not official NWS values.
T = Trace of Precipitation, MM = Missing Value Source: NWS Daily Summary

Daily Weather History Graph

Daily Weather History Graph

Search for Another Location

Airport or City:

Trip Planner

Search our weather history database for the weather conditions in past years. The results will help you decide how hot, cold, wet, or windy it might be!

Date:

Astronomy

Nov. 10, 2012 Rise Set
Actual Time 6:53 AM MST 5:27 PM MST
Civil Twilight 6:27 AM MST 5:53 PM MST
Nautical Twilight 5:57 AM MST 6:22 PM MST
Astronomical Twilight 5:28 AM MST 6:52 PM MST
Moon 3:12 AM MST (11/10) 3:07 PM MST (11/10)
Length of Visible Light 11h 25m
Length of Day
10h 33m
Waning Crescent, 14% of the Moon is Illuminated
Nov 10
Waning Crescent
Nov 13
New
Nov 20
First Quarter
Nov 28
Full
Dec 6
Last Quarter

Hourly Weather History & Observations

Time (MST) Temp. Windchill Dew Point Humidity Pressure Visibility Wind Dir Wind Speed Gust Speed Precip Events Conditions
12:15 AM 57.2 °F - 50.0 °F 77% 29.85 in 7.0 mi SW 8.1 mph - 0.04 in Rain Light Rain
12:35 AM 53.6 °F - 48.2 °F 82% 29.85 in 5.0 mi WSW 9.2 mph - 0.05 in Rain Rain
12:55 AM 53.6 °F - 46.4 °F 77% 29.85 in 7.0 mi SW 6.9 mph - 0.06 in   Drizzle
1:15 AM 51.8 °F - 46.4 °F 82% 29.85 in 7.0 mi SW 10.4 mph - 0.01 in Rain Light Rain
1:35 AM 51.8 °F - 46.4 °F 82% 29.85 in 7.0 mi West 6.9 mph - 0.02 in Rain Light Rain
1:55 AM 51.8 °F - 46.4 °F 82% 29.86 in 7.0 mi WSW 8.1 mph - 0.04 in Rain Light Rain
2:15 AM 51.8 °F - 46.4 °F 82% 29.87 in 10.0 mi SW 8.1 mph - N/A Rain Rain
2:35 AM 51.8 °F - 46.4 °F 82% 29.87 in 10.0 mi SSW 8.1 mph - 0.02 in Rain Light Rain
3:15 AM 51.8 °F - 46.4 °F 82% 29.86 in 10.0 mi SE 5.8 mph - N/A Rain Light Rain
3:35 AM 51.8 °F - 46.4 °F 82% 29.88 in 10.0 mi SSE 9.2 mph - N/A   Clear
3:55 AM 51.8 °F - 46.4 °F 82% 29.88 in 10.0 mi SE 10.4 mph - N/A   Clear
4:15 AM 51.8 °F - 46.4 °F 82% 29.89 in 10.0 mi SSE 11.5 mph - N/A   Clear
4:35 AM 51.8 °F - 48.2 °F 88% 29.89 in 10.0 mi SSE 10.4 mph - N/A   Clear
4:55 AM 51.8 °F - 48.2 °F 88% 29.91 in 10.0 mi SSE 10.4 mph - N/A   Light Drizzle
5:15 AM 51.8 °F - 48.2 °F 88% 29.92 in 10.0 mi SSE 9.2 mph - N/A   Clear
5:47 AM 51.8 °F - 46.4 °F 82% 29.93 in 20.0 mi SSE 12.7 mph - N/A Rain Light Rain
6:47 AM 51.8 °F - 46.4 °F 82% 29.95 in 30.0 mi SE 9.2 mph - N/A   Mostly Cloudy
7:49 AM 51.8 °F - 44.6 °F 76% 29.98 in 30.0 mi ESE 6.9 mph - N/A   Scattered Clouds
8:53 AM 53.6 °F - 44.6 °F 72% 30.00 in 30.0 mi SSW 5.8 mph - N/A   Partly Cloudy
9:50 AM 55.4 °F - 37.4 °F 51% 30.11 in 30.0 mi SSW 6.9 mph - N/A   Partly Cloudy
10:51 AM 57.2 °F - 33.8 °F 41% 30.01 in 30.0 mi WSW 6.9 mph - N/A   Scattered Clouds
11:53 AM 59.0 °F - 33.8 °F 39% 30.00 in 30.0 mi SW 8.1 mph - N/A   Mostly Cloudy
12:47 PM 60.8 °F - 33.8 °F 36% 29.98 in 30.0 mi SW 15.0 mph 19.6 mph N/A   Mostly Cloudy
2:40 PM 60.8 °F - 26.6 °F 27% 29.93 in 30.0 mi West 8.1 mph 13.8 mph N/A   Mostly Cloudy
3:47 PM 60.8 °F - 24.8 °F 25% 29.94 in 30.0 mi WSW 9.2 mph 20.7 mph N/A   Mostly Cloudy
4:47 PM 60.8 °F - 26.6 °F 27% 29.95 in 30.0 mi SW 11.5 mph 23.0 mph N/A   Mostly Cloudy
5:47 PM 57.2 °F - 26.6 °F 31% 29.95 in 20.0 mi SW 16.1 mph - N/A   Mostly Cloudy
6:47 PM 57.2 °F - 28.4 °F 33% 29.99 in 20.0 mi West 12.7 mph 21.9 mph N/A   Mostly Cloudy
7:50 PM 55.4 °F - 30.2 °F 38% 30.02 in 20.0 mi West 19.6 mph 28.8 mph N/A Rain Light Rain
7:55 PM 55.4 °F - 30.2 °F 38% 30.02 in 7.0 mi WNW 16.1 mph 29.9 mph N/A   Clear
8:15 PM 55.4 °F - 28.4 °F 36% 30.01 in 10.0 mi WNW 6.9 mph - N/A   Clear
8:35 PM 51.8 °F - 30.2 °F 44% 30.02 in 10.0 mi WSW 3.5 mph - N/A   Clear
8:55 PM 51.8 °F - 32.0 °F 47% 30.02 in 10.0 mi SW 4.6 mph - N/A   Clear
9:15 PM 51.8 °F - 33.8 °F 50% 30.03 in 10.0 mi WSW 4.6 mph - N/A   Clear
9:35 PM 51.8 °F - 33.8 °F 50% 30.04 in 10.0 mi WSW 4.6 mph - N/A   Clear
9:55 PM 50.0 °F - 33.8 °F 54% 30.05 in 10.0 mi Calm Calm - N/A   Clear
10:15 PM 51.8 °F - 32.0 °F 47% 30.06 in 10.0 mi Calm Calm - N/A   Clear
10:35 PM 51.8 °F - 33.8 °F 50% 30.07 in 10.0 mi Calm Calm - N/A   Clear
10:55 PM 50.0 °F - 32.0 °F 50% 30.07 in 10.0 mi Calm Calm - N/A   Clear
11:15 PM 46.4 °F - 32.0 °F 57% 30.08 in 10.0 mi Calm Calm - N/A   Clear
11:35 PM 44.6 °F 41.4 °F 32.0 °F 61% 30.09 in 10.0 mi SSW 5.8 mph - N/A   Clear
11:55 PM 46.4 °F 44.3 °F 32.0 °F 57% 30.09 in 10.0 mi SW 4.6 mph - N/A   Clear